RCM-1 (44322 NORAD) Tracking and Keplerian Element Data

This shows tracking and keplerian element data for the satellite.

Feedback or suggestion? Click here.




ElementValue
Catalog44322
NameRCM-1
Epoch Orbit420
Epoch Day191.82025338
Epoch Year2019
RAAN198.5366
Inclination97.7624
Eccentricity0.0018198
Argument of Perigee156.7012
Mean Anonmoly203.3482
Mean Motion14.9106614
Decay Rate-8.3E-07
L11 44322U 19033A 19191.82025338 -.00000083 00000-0 -27439-5 0 9996
L22 44322 97.7624 198.5366 0018198 156.7012 203.3482 14.91066140 4209

Live tracking and technical data element details for RCM-1 (NORAD 44322). RCM-1 can be tracked NOW for your location showing map with azimuth and elevation plus other details from your city location.

Track the satellite on the map from your city or location and see movement details for azimuth, elevation, latitude, longitude, range, height, and movement on the map or in text.







IsCatalogInMostPopularTable: catalog: 44322, numindb: 6
Update: records affected: 1



GetName: 44322 RCM-1

Hit Count: updated at: Fri, 19 Jul 2019 08:34:39 GMT